Weather in Khor

Russia / Khabarovsk Krai     47°53′06″N   134°57′26″E
temp.,
°C
wind,
m/s
gust,
m/s
humid.,
%
clouds,
%
prec.,
mm/h
press.,
hPa
HPBL,
m
17 may, mon
mon1701:00+10wsw34759 0.0 100148
04:00+9wsw22790 0.0 100124
07:00+11wsw237450 0.0 100283
10:00+18wsw23510 0.0 1002498
13:00+22wsw35360 0.0 10021725
16:00+23sw46290 0.0 10012495
19:00+20s36500 0.0 1001136
22:00+14ssw34541 0.0 100250
18 may, tue
tue1801:00+12s34595 0.0 100253
04:00+13ssw226439 0.0 100357
07:00+13sse26696 0.0 1003185
10:00+21ssw611475 0.0 1003789
13:00+25sw9133875 0.0 10021371
16:00+26ssw81339100 0.0 10012251
19:00+23ssw7144451 0.0 1000565
22:00+18ssw516483 0.0 1001374
19 may, wed
wed1901:00+17wsw475217 0.0 1001140
04:00+13sw23732 0.0 100234
07:00+14sw3672100 0.0 1004212
10:00+17s245852 0.0 1003525
13:00+22sw454933 0.0 10031170
16:00+23w584562 0.0 10032274
19:00+22wsw12540 0.0 100454
22:00+16wsw11655 0.0 100611
20 may, thu
thu2001:00+14sse33751 0.0 100729
04:00+13se22810 0.0 100730
07:00+15sse38803 0.0 1006212
10:00+22s68604 0.1 1004741
13:00+26sw9114457 0.0 10041453
16:00+27wsw71344100 0.0 10031790
19:00+24wsw375389 0.0 1003140
22:00+19ssw41066100 0.0 1004163
21 may, fri
fri2101:00+17sw2275100 0.0 100536
04:00+15ssw2279100 0.0 100519
07:00+17s1275100 0.0 100687
10:00+21w1154100 0.0 1006394
13:00+25sse2242100 0.0 1004836
16:00+27ene1237100 0.0 10031182
19:00+23ne51057100 0.0 1002366
22:00+18ne41076100 0.0 1003270